TimeEST,TemperatureF,Dew PointF,Humidity,Sea Level PressureIn,VisibilityMPH,Wind Direction,Wind SpeedMPH,Gust SpeedMPH,PrecipitationIn,Events,Conditions,WindDirDegrees,DateUTC
12:55 AM,19.0,12.0,74,30.14,10.0,Calm,Calm,-,N/A,,Clear,0,2013-03-03 05:55:00
1:55 AM,19.0,12.9,77,30.14,10.0,NNW,3.5,-,N/A,,Clear,340,2013-03-03 06:55:00
2:55 AM,18.0,12.0,78,30.13,10.0,North,3.5,-,N/A,,Clear,360,2013-03-03 07:55:00
3:55 AM,18.0,10.0,71,30.12,10.0,North,3.5,-,N/A,,Clear,360,2013-03-03 08:55:00
4:55 AM,14.0,8.1,77,30.11,10.0,Calm,Calm,-,N/A,,Clear,0,2013-03-03 09:55:00
5:55 AM,10.9,7.0,84,30.12,10.0,Calm,Calm,-,N/A,,Partly Cloudy,0,2013-03-03 10:55:00
6:55 AM,10.4,5.0,79,30.09,10.0,Calm,Calm,-,N/A,,Mostly Cloudy,0,2013-03-03 11:55:00
7:55 AM,12.9,7.0,77,30.14,10.0,Calm,Calm,-,N/A,,Mostly Cloudy,0,2013-03-03 12:55:00
8:55 AM,14.0,9.0,80,30.14,10.0,Calm,Calm,-,N/A,,Scattered Clouds,0,2013-03-03 13:55:00
9:55 AM,21.9,12.0,66,30.13,10.0,Calm,Calm,-,N/A,,Scattered Clouds,0,2013-03-03 14:55:00
10:55 AM,27.0,14.0,58,30.12,10.0,NNW,9.2,-,N/A,,Overcast,340,2013-03-03 15:55:00
11:55 AM,28.9,12.9,51,30.11,10.0,WNW,10.4,-,N/A,,Mostly Cloudy,290,2013-03-03 16:55:00
12:55 PM,30.0,14.0,51,30.09,10.0,NW,15.0,19.6,N/A,,Mostly Cloudy,320,2013-03-03 17:55:00
1:55 PM,28.9,15.1,56,30.07,10.0,NW,12.7,-,N/A,,Mostly Cloudy,310,2013-03-03 18:55:00
2:55 PM,30.0,15.1,54,30.06,10.0,WNW,15.0,-,N/A,,Clear,300,2013-03-03 19:55:00
3:55 PM,30.0,15.1,54,30.06,10.0,WNW,10.4,19.6,N/A,,Partly Cloudy,290,2013-03-03 20:55:00
4:55 PM,28.0,16.0,61,30.07,10.0,WNW,11.5,19.6,N/A,,Partly Cloudy,290,2013-03-03 21:55:00
5:55 PM,27.0,14.0,58,30.09,10.0,NW,8.1,-,N/A,,Partly Cloudy,310,2013-03-03 22:55:00
6:55 PM,25.0,12.9,60,30.10,10.0,NW,9.2,-,N/A,,Partly Cloudy,320,2013-03-03 23:55:00
7:55 PM,23.0,12.9,65,30.12,10.0,NW,6.9,-,N/A,,Partly Cloudy,320,2013-03-04 00:55:00
8:55 PM,21.9,12.9,68,30.13,10.0,NW,5.8,-,N/A,,Clear,320,2013-03-04 01:55:00
9:55 PM,21.2,12.2,68,30.09,10.0,NNW,3.5,-,N/A,,Clear,330,2013-03-04 02:55:00
10:55 PM,21.0,12.0,68,30.12,10.0,North,4.6,-,N/A,,Clear,360,2013-03-04 03:55:00
11:55 PM,19.0,10.9,71,30.14,10.0,NNW,4.6,-,N/A,,Clear,340,2013-03-04 04:55:00